Timeline UpdatesTrip UpdatesNews PostsPvt PostsTravel TipsAdmin PostsConv PostsFollowed PostsChat RequestsBlog PostsPNR Posts

Disclaimer
Search
 
 
Tue Jul 29, 2014 16:16:22 ISTHomeTrainsΣChainsAtlasPNRForumGalleryNewsFAQTripsMembersLoginFeedback
No Recent News for this Train
Other Trains in the News **new
Latest...
⇐ Return Journey: Train# 55022

55021/Samastipur Siwan InterCity Fast Passenger (UnReserved)

Nov 15 2013 (8:33PM)
Change Departure Station:
Change Arrival Station:
Post a Train Travel TipPost a Train Travel Tip **new
Post a Comment/Question/Picture/VideoPost a Comment/Question/Picture/Video
Pantry/Catering
???
RSA - Rake Sharing
Rake/Coach Composition
Loco
News    PNR    Forum    Time-Table    Availability    Fare Chart    Map    Arr/Dep History    Trips    Gallery    ΣChains    X/O    Timeline    
Travel Time: 3h 28m    17 halts    Distance: 106 km    Avg Speed: 30 km/hr
Type: Passenger
Zone: NER/North Eastern
Departs @ 16:00 (Avg 12m late)
Platform# ???
SMTWTFS
Samastipur Junction/SPJ 
Arrives @ 19:28 (Avg 2h 0m late)
Platform# 1
SMTWTFS
Hajipur Junction/HJP 

17 halts. 18 intermediate Stations between Samastipur Junction and Hajipur Junction

Show ALL intermediate Stations  Show Old Time-Table

#CodeStation NameX/OArrivesAvgDepartsAvgHaltPFDay#KmSpeedElevZoneAddress
1SPJ»Samastipur Junction (9)»  -16:00+12--10.04255mECRSamastipur, Bihar
2KPGMKarpurigram (3)X  16:09+4516:10+511m--16.34951mECRState Highway 49, Bihar
3KRBPKhudiram B PusaX  16:19+4816:20+531m--113.64052mECRDistt. Samastipur, Bihar
4DUBHDubaha  16:31+5616:32+571m--120.94055mECRDubha Station, Bihar
5DOLDholi (2)X  16:41+4816:42+571m--127.04652mECRDistt. Muzaffarpur, Bihar
6SIHOSihoX  16:51+1:0316:52+1:071m--133.85253mECRNational Highway 28, Bihar
7SLTSilaut  17:01+1:0517:02+1:061m--141.63857mECRMuzaffarpur, Bihar
8NRPANarayanpur Anant (3)X  17:11+1:0617:12+1:101m--147.32256mECRMuzaffarpur, Bihar
9MFPMuzaffarpur Junction (6)X  17:25+2317:35+2610m4152.13657mECRMuzaffarpur, Bihar
10RDRam Dayalu Nagar (3)X  17:45+1:3017:46+1:581m--158.24256mECRMuzaffarpur, Bihar
11TURTurki (2)  17:57+2:1217:58+2:141m--165.94855mECRTurki, Bihar
12KHIKurhani (2)XO  18:06+2:1518:07+2:261m--172.21556mECRKurhani, Bihar
13GRLGoraul (2)  18:30+2:1318:31+2:251m2178.01757mECRVAISHALI, Bihar
14BNPTBenipatti Pirapur (1)X  18:38-18:39-1m1179.95555mECRGhojaul Rd, Bihar
15BNRBhagwanpur (2)  18:46+2:2518:47+2:451m2186.32860mECRBhagwanpur, Bihar
16BTHLBithauli (1)  18:57-18:58-1m1190.95358mECRVaishali, Bihar
17SAISarai (1)X  19:03+2:4219:04+2:501m1195.32654mECRVaishali, Bihar
18GWHGhoshawar (1)  19:18-19:19-1m11101.43054mECRDaulatpur Deoria urf Daulatpur, Bihar
19HJP•Hajipur Junction (3)•  19:28+2:0019:33+2:115m11105.93355mECR06224-272230, Bihar
20SEESonpur Junction (4)X  19:43+3:0519:48+3:055m--1111.44456mECRSaran, Bihar
21PMUParmanandpur (2)  19:57+3:2019:58+3:211m--1118.14756mECRNational Highway 19, Bihar
22NYONayagaon (2)  20:04+3:2120:05+3:231m--1122.85153mECRNayagaon Sarai, Bihar
23STLRSitalpur (2)X  20:14+3:2320:15+3:261m--1130.41957mECRSitalpur, Bihar
24DGADighwara (2)  20:28+2:4820:29+2:521m--1134.63560mECR06158-281240, Bihar
25ATNRAwatarnagar (2)  20:39-20:40-1m--1140.51456mECRNH 19, Bihar
26PPDAPanchpatia Deoria Halt (1)O  20:49-20:50-1m11142.61257mECRNH 19, Bihar
27BAGLBaragopal (2)X  21:04+3:0221:05+3:081m--1145.44157mECRSH 46, Bihar
28DRIDumri Juara (2)  21:11-21:12-1m--1149.57157mECRSaran, Bihar
29GJHGoldinganj (2)X  21:16+2:5121:17+2:571m--1154.34958mECRChapra Patna Highway, Bihar
30CIChhapra Kacheri (3)  21:28+2:5621:30+3:052m--1163.32557mNERChhapra, Bihar
31CPRChhapra Junction (6)  21:35+1:2121:45+1:2410m--1165.43758mNERDistt: Saran, Bihar
32TKVRTeknewas (2)  21:52+4:0221:53+4:031m--1169.86358mNERSaran, Bihar
33KPSKopa Samhota (2)  21:59+4:0522:00+4:121m--1176.16569mNERKopa Samhota Station Rd, Bihar
34DDPDaudpur (2)  22:08+4:1322:09+4:141m--1184.76559mNERChhapra, Bihar
35EKMAEkma (3)  22:17+3:1222:18+3:131m--1193.36464mNERSaran, Bihar
36MHRNMahendranath Halt (2)  22:23-22:24-1m--1198.73063mNERMahendrana, Uttar Pradesh
37CWChainwa (2)  22:28+3:4122:29+3:421m--1200.73863mNERSiwan, Bihar
38DDADuraundha Junction (3)X  22:42+3:3922:43+3:451m--1208.94764mNERDistt: Siwan, Bihar
39PCKPachrukhi (2)  22:55+4:2122:56+4:251m--1218.33667mNERPachrukhi, Bihar
40SVSiwan Junction (4)  23:10+2:10---1226.6-70mNERSiwan, Bihar
Scroll to Top
Scroll to Bottom